This is the latest recevied weather packets stored in our database for station/object KB1YYC. If no packets are shown the sender has not sent any weather packets the latest 10 day(s).
| Time | Temp. | Humidity | Pressure | Rain* | Wind** | Luminosity | Snow |
|---|---|---|---|---|---|---|---|
| 1777380463 | 8.33° C | 77% | 1024.6 hPa | 0 mm | - | 427 W/m² | - |
| 1777380160 | 8.33° C | 77% | 1024.6 hPa | 0 mm | - | 413 W/m² | - |
| 1777379856 | 7.78° C | 78% | 1024.6 hPa | 0 mm | - | 400 W/m² | - |
| 1777379552 | 7.22° C | 79% | 1024.8 hPa | 0 mm | - | 383 W/m² | - |
| 1777379247 | 6.67° C | 84% | 1024.6 hPa | 0 mm | - | 367 W/m² | - |
| 1777378942 | 6.67° C | 85% | 1024.9 hPa | 0 mm | - | 349 W/m² | - |
| 1777378638 | 6.67° C | 86% | 1024.8 hPa | 0 mm | - | 202 W/m² | - |
| 1777378335 | 6.11° C | 88% | 1025.1 hPa | 0 mm | - | 266 W/m² | - |
| 1777378034 | 5.56° C | 89% | 1024.9 hPa | 0 mm | - | 192 W/m² | - |
| 1777377729 | 5.56° C | 90% | 1024.8 hPa | 0 mm | - | 112 W/m² | - |
| 1777377423 | 5.56° C | 90% | 1025.2 hPa | 0 mm | - | 109 W/m² | - |
| 1777377120 | 5.56° C | 91% | 1024.9 hPa | 0 mm | - | 99 W/m² | - |
| 1777376817 | 5.56° C | 92% | 1025.1 hPa | 0 mm | - | 121 W/m² | - |
| 1777376508 | 5° C | 93% | 1025 hPa | 0 mm | - | 129 W/m² | - |
| 1777376204 | 5° C | 94% | 1025 hPa | 0 mm | - | 117 W/m² | - |
| 1777375899 | 5° C | 95% | 1024.9 hPa | 0 mm | - | 117 W/m² | - |
| 1777375594 | 5° C | 96% | 1025.2 hPa | 0 mm | - | 91 W/m² | - |
| 1777375289 | 5° C | 96% | 1025 hPa | 0 mm | - | 70 W/m² | - |
| 1777374986 | 4.44° C | 96% | 1025 hPa | 0 mm | - | 65 W/m² | - |
| 1777374681 | 4.44° C | 97% | 1024.7 hPa | 0 mm | - | 68 W/m² | - |
| 1777374378 | 3.89° C | 97% | 1024.9 hPa | 0 mm | - | 62 W/m² | - |
| 1777374075 | 3.33° C | 97% | 1024.9 hPa | 0 mm | - | 53 W/m² | - |
| 1777373770 | 2.78° C | 97% | 1025.1 hPa | 0 mm | - | 52 W/m² | - |
| 1777373469 | 2.78° C | 97% | 1024.9 hPa | 0 mm | - | 40 W/m² | - |
| 1777373163 | 2.22° C | 97% | 1024.9 hPa | 0 mm | - | 35 W/m² | - |
* Rain latest hour (hover to see other rain measurements)
** Current wind speed in m/s (hover to see current wind gust speed)